Kalispell, MT

4:57 AM MDT on June 24, 2017 (GMT -0600)
Glacier Park International

Weather History for KGPI - September, 2013

Change the Weather History Date:

Thursday, September 12, 2013

  Actual Average Record
Temperature  
Mean Temperature 69 °F 56 °F  
Max Temperature 90 °F 72 °F 90 °F (1959)
Min Temperature 48 °F 40 °F 23 °F (2014)
Degree Days  
Heating Degree Days 0 10  
Month to date heating degree days 17 92  
Since 1 July heating degree days 58 262  
Cooling Degree Days 4 0  
Month to date cooling degree days 23 1  
Year to date cooling degree days 258 144  
Growing Degree Days 19 (Base 50)    
Moisture  
Dew Point 47 °F    
Average Humidity 54    
Maximum Humidity 86    
Minimum Humidity 21    
Precipitation  
Precipitation 0.00 in 0.05 in 1.14 in (1985)
Month to date precipitation 0.86 0.58  
Year to date precipitation 11.48 12.19  
Snow  
Snow 0.00 in - - ()
Month to date snowfall 0.0  
Year to date snowfall 10.1  
Since 1 July snowfall 0.0  
Snow Depth 0.00 in    
Sea Level Pressure  
Sea Level Pressure 30.05 in    
Wind  
Wind Speed 3 mph (NNW)    
Max Wind Speed 15 mph    
Max Gust Speed 67 mph    
Visibility 10 miles    
Events      
T = Trace of Precipitation, MM = Missing Value Source: NWS Daily Summary

Daily Weather History Graph

Daily Weather History Graph

Search for Another Location

Airport or City:

Trip Planner

Search our weather history database for the weather conditions in past years. The results will help you decide how hot, cold, wet, or windy it might be!

Date:

Astronomy

Sep. 12, 2013 Rise Set
Actual Time 7:10 AM MDT 7:55 PM MDT
Civil Twilight 6:38 AM MDT 8:26 PM MDT
Nautical Twilight 6:00 AM MDT 9:04 PM MDT
Astronomical Twilight 5:21 AM MDT 9:43 PM MDT
Moon 3:12 PM MDT (9/12) No Moon Set
Length of Visible Light 13h 47m
Length of Day
12h 44m
Waxing Crescent, 51% of the Moon is Illuminated
Sep 12
Waxing Crescent
Sep 19
Full
Sep 26
Last Quarter
Oct 4
New
Oct 11
First Quarter

Hourly Weather History & Observations

Time (MDT) Temp. Dew Point Humidity Pressure Visibility Wind Dir Wind Speed Gust Speed Precip Events Conditions
12:55 AM 55.0 °F 48.0 °F 77% 30.14 in 10.0 mi Calm Calm - N/A   Clear
1:55 AM 53.1 °F 48.0 °F 83% 30.14 in 10.0 mi Calm Calm - N/A   Clear
2:55 AM 51.1 °F 46.0 °F 83% 30.14 in 10.0 mi Calm Calm - N/A   Clear
3:55 AM 52.0 °F 46.0 °F 80% 30.13 in 10.0 mi WNW 3.5 mph - N/A   Clear
4:55 AM 50.0 °F 46.0 °F 86% 30.14 in 10.0 mi Calm Calm - N/A   Clear
5:55 AM 50.0 °F 46.0 °F 86% 30.14 in 10.0 mi Calm Calm - N/A   Clear
6:55 AM 51.1 °F 46.0 °F 83% 30.14 in 10.0 mi NW 4.6 mph - N/A   Clear
7:55 AM 53.1 °F 48.0 °F 83% 30.16 in 10.0 mi WNW 3.5 mph - N/A   Clear
8:55 AM 64.0 °F 51.1 °F 63% 30.15 in 10.0 mi North 5.8 mph - N/A   Clear
9:55 AM 68.0 °F 48.0 °F 49% 30.14 in 10.0 mi NE 12.7 mph - N/A   Clear
10:55 AM 72.0 °F 48.0 °F 43% 30.11 in 10.0 mi NE 11.5 mph - N/A   Clear
11:55 AM 75.9 °F 48.0 °F 37% 30.09 in 10.0 mi North 4.6 mph - N/A   Clear
12:55 PM 80.1 °F 48.0 °F 32% 30.07 in 10.0 mi NNE 5.8 mph - N/A   Clear
1:55 PM 82.0 °F 48.0 °F 30% 30.04 in 10.0 mi Calm Calm - N/A   Clear
2:55 PM 84.9 °F 44.1 °F 24% 30.01 in 10.0 mi Calm Calm - N/A   Clear
3:55 PM 87.1 °F 43.0 °F 21% 29.97 in 10.0 mi Calm Calm - N/A   Clear
4:55 PM 88.0 °F 42.1 °F 20% 29.95 in 10.0 mi Calm Calm - N/A   Clear
5:55 PM 87.1 °F 44.1 °F 22% 29.93 in 10.0 mi Calm Calm - N/A   Clear
6:55 PM 84.0 °F 44.1 °F 25% 29.92 in 10.0 mi Calm Calm - N/A   Clear
7:55 PM 66.9 °F 51.1 °F 57% 29.94 in 10.0 mi WNW 3.5 mph - N/A   Clear
8:55 PM 62.1 °F 48.9 °F 62% 29.93 in 10.0 mi Calm Calm - N/A   Clear
9:55 PM 60.1 °F 48.0 °F 64% 29.93 in 10.0 mi Calm Calm - N/A   Clear
10:55 PM 54.0 °F 48.0 °F 80% 29.93 in 10.0 mi Calm Calm - N/A   Clear
11:55 PM 53.1 °F 46.9 °F 80% 29.91 in 10.0 mi Calm Calm - N/A   Clear